Meath Environmental Platform

Observations for Trim Market St

Time AQI Temp °C Hum % Pres Pa CO μg/m³ H₂S μg/m³ NO μg/m³ NO₂ μg/m³ O₃ μg/m³ SO₂ μg/m³ PM1 μg/m³ PM2.5 μg/m³ PM10 μg/m³
Tuesday 14 July 2026
18:45 2 24.8 38 65,598 0 4.32 0 9.69 36.42 0 3.56 7.24 9.16
18:43 2 24.8 37 65,635 0 4.4 0 10.02 35.08 0 3.56 8.85 10.81
18:42 2 24.8 37 65,647 0 4.45 0 9.63 34.45 0 4.28 8.32 10.81
18:36 2 24.9 37 65,678 0 2.67 0 9.08 37.41 0 2.14 5.7 6.7
18:29 1 24.9 36 65,719 0 5.51 0 10.33 36.18 0 3.56 7.85 9.18
18:28 1 25 36 65,724 0 5.93 0 10.61 38.07 0 4.28 7.86 9.18
18:27 2 25 36 65,732 0 6.7 0 12.82 34.62 0 2.85 6.79 9.18
18:26 1 25 36 65,746 0 6.3 0 11.33 39.31 0 2.85 6.26 6.7
18:25 1 25 36 65,756 0 5.56 0 10.64 37.79 0 3.56 6.8 8.36
18:24 1 25 36 65,746 0 4.68 0 9.44 35 0 3.56 7.34 8.36
18:23 1 25 36 65,732 0 5 0 9.14 40.97 0 2.85 6.27 8.36
18:22 1 25 36 65,713 0 5.58 0 10.36 36.49 0 2.85 7.88 11.68
18:21 1 25.1 36 65,715 0 5.93 0 9.54 39.42 0 3.56 7.35 8.36
18:20 1 25 36 65,719 0 7.87 0 10.38 39.3 0 4.28 6.82 10.02
18:19 1 25.1 36 65,723 0 6.78 0 11.35 38.42 0 2.85 7.36 9.19
18:18 1 25.1 35 65,728 0 8.16 0 13.76 32.03 0 3.56 6.83 8.36
18:17 1 25.1 35 65,732 0 8.88 0 13.47 38.33 0 4.28 7.9 9.19
18:16 1 25.1 35 65,740 0 7.87 0 10.5 39.78 0 3.56 7.38 8.36
18:14 1 25.1 35 65,750 0 10.26 0 11.92 44.37 0 2.14 7.39 9.2
18:13 1 25.1 35 65,766 0 8.37 0 10.24 39.7 0 2.85 5.79 6.69